This is the latest recevied weather packets stored in our database for station/object KE8KMM. If no packets are shown the sender has not sent any weather packets the latest 10 day(s).
| Time | Temp. | Humidity | Pressure | Rain* | Wind** | Luminosity | Snow |
|---|---|---|---|---|---|---|---|
| 1777359416 | 14.44° C | 89% | 1011.1 hPa | 6.1 mm | - | 0 W/m² | - |
| 1777359112 | 14.44° C | 87% | 1011.2 hPa | 3.05 mm | - | 0 W/m² | - |
| 1777358810 | 15° C | 87% | 1011.1 hPa | 1.78 mm | - | 0 W/m² | - |
| 1777358507 | 15° C | 86% | 1011.1 hPa | 1.27 mm | - | 0 W/m² | - |
| 1777358205 | 15° C | 85% | 1010.8 hPa | 1.78 mm | - | 0 W/m² | - |
| 1777357903 | 15.56° C | 84% | 1010.9 hPa | 1.78 mm | - | 0 W/m² | - |
| 1777357600 | 15.56° C | 82% | 1010.6 hPa | 0 mm | - | 0 W/m² | - |
| 1777357296 | 16.11° C | 81% | 1010.2 hPa | 0 mm | - | 0 W/m² | - |
| 1777356993 | 16.11° C | 81% | 1009.7 hPa | 0 mm | - | 0 W/m² | - |
| 1777356691 | 16.11° C | 80% | 1009.7 hPa | 1.27 mm | - | 0 W/m² | - |
| 1777356388 | 16.67° C | 78% | 1010.1 hPa | 0 mm | - | 0 W/m² | - |
| 1777356084 | 16.67° C | 78% | 1010 hPa | 0 mm | - | 0 W/m² | - |
| 1777355781 | 16.67° C | 79% | 1010.2 hPa | 0 mm | - | 0 W/m² | - |
| 1777355478 | 16.67° C | 77% | 1010.2 hPa | 0 mm | - | 0 W/m² | - |
| 1777355175 | 17.22° C | 76% | 1010.5 hPa | 0 mm | - | 0 W/m² | - |
| 1777354871 | 17.22° C | 77% | 1010.6 hPa | 0 mm | - | 0 W/m² | - |
| 1777354568 | 17.22° C | 75% | 1010.6 hPa | 0 mm | - | 0 W/m² | - |
| 1777354263 | 17.78° C | 74% | 1010.6 hPa | 0 mm | - | 0 W/m² | - |
| 1777353960 | 17.78° C | 74% | 1010.5 hPa | 0 mm | - | 0 W/m² | - |
| 1777353656 | 18.33° C | 71% | 1010.7 hPa | 0 mm | - | 0 W/m² | - |
| 1777353355 | 18.89° C | 70% | 1010.7 hPa | 0 mm | - | 0 W/m² | - |
| 1777353052 | 18.89° C | 69% | 1010.8 hPa | 0 mm | - | 0 W/m² | - |
| 1777352751 | 18.89° C | 68% | 1010.7 hPa | 0 mm | - | 0 W/m² | - |
| 1777352449 | 19.44° C | 66% | 1010.3 hPa | 0 mm | - | 0 W/m² | - |
| 1777352145 | 19.44° C | 65% | 1010.2 hPa | 0 mm | - | 0 W/m² | - |
* Rain latest hour (hover to see other rain measurements)
** Current wind speed in m/s (hover to see current wind gust speed)